Terug naar catalogus

ORBCOMM FM 111

ActiefCommunicatieLEO
NORAD 40089·PAYLOAD·🇺🇸 United States

Gelanceerd Jul 14, 2014 vanaf Cape Canaveral Space Force Station

Loading…

Volgende Passages (komende 24 uur)

TLE

VersSource: Space-Track

Epoch: Sep 14, 2026, 13:07 UTC

1 40089U 14040D   26257.54720935  .00001469  00000-0  17615-3 0  9990
2 40089  47.0021 320.1546 0028856 216.1599 143.7348 14.89171872657893

Volg ORBCOMM FM 111 in realtime met AllMySat

Download on the App Store